Home > Weather > Plymouth > Past weeks

Flag for United Kingdom Weather for the Past 2 Weeks in Plymouth, England, United Kingdom

Now
45 °F

Light rain. Partly cloudy.


Feels Like: 38 °F
Forecast: 40 / 46 °F
Wind: 14 mph from Southeast

Location: Culdrose

Current Time: Feb 12, 2016 at 5:48:47 AM

Latest Report: Feb 12, 2016 at 4:50 AM


Visibility: 2 mi

Pressure: 29.18 "Hg

Humidity: 93%

Dew point: 43 °F

Location of PlymouthLocation

Historic Weather in Plymouth — Graph

°F

Plymouth Temperature Yesterday

Maximum temperature yesterday: 48 °F (at 2:50 PM)
Minimum temperature yesterday: 37 °F (at 2:50 AM)
Average temperature yesterday: 43 °F

High & Low Weather Summary for the Past Weeks

 TemperatureHumidityPressure
High54 °F (Jan 31, 8:50 AM)100% (Jan 28, 9:50 PM)30.48 "Hg (Jan 28, 9:50 PM)
Low37 °F (Feb 7, 1:50 AM)54% (Feb 8, 11:50 AM)29.09 "Hg (Feb 6, 2:50 PM)
Average47 °F84%29.84 "Hg
* Reported Jan 28 3:50 AM — Feb 12 3:50 AM, Plymouth, Weather by CustomWeather, © 2016

Note: Actual official high and low records may vary slightly from our data, if they occured in-between our weather recording intervals... More about our weather records

Advertising

Plymouth Weather History for the Previous 24 Hours

 ConditionsComfort  
Time TempWeatherWind HumidityBarometerVisibility
3:50 AM
Fri, Feb 12
43 °FLight rain. Partly cloudy.14 mph100%29.21 "Hg2 mi
2:50 AM45 °FLight rain. Partly cloudy.13 mph87%29.24 "Hg3 mi
1:50 AM43 °FLight rain. Partly cloudy.13 mph93%29.27 "Hg5 mi
12:50 AM43 °FPassing clouds.14 mph93%29.33 "HgN/A
11:50 PM
Thu, Feb 11
43 °FLight rain. Partly cloudy.10 mph87%29.36 "HgN/A
10:50 PM43 °FLight rain. Partly cloudy.6 mph87%29.42 "HgN/A
9:50 PM43 °FPartly cloudy.14 mph81%29.45 "Hg5 mi
8:50 PM43 °FPartly cloudy.7 mph81%29.47 "HgN/A
7:50 PM45 °FPartly cloudy.8 mph71%29.50 "HgN/A
6:50 PM45 °FScattered showers. Partly cloudy.12 mph71%29.56 "HgN/A
5:50 PM45 °FScattered showers. Partly cloudy.12 mph76%29.56 "HgN/A
4:50 PM45 °FScattered showers. Partly sunny.13 mph76%29.59 "HgN/A
3:50 PM46 °FScattered showers. Scattered clouds.12 mph71%N/AN/A
2:50 PM48 °FScattered showers. Passing clouds.12 mph71%29.59 "HgN/A
1:50 PM45 °FSprinkles. Scattered clouds.13 mph71%29.62 "HgN/A
12:50 PM45 °FSprinkles. Scattered clouds.16 mph76%29.65 "Hg5 mi
11:50 AM46 °FScattered showers. Scattered clouds.7 mph71%29.65 "HgN/A
10:50 AM46 °FScattered showers. Scattered clouds.9 mph71%29.65 "HgN/A
9:50 AM43 °FScattered showers. Scattered clouds.7 mph81%29.65 "HgN/A
8:50 AM43 °FScattered showers. Scattered clouds.8 mph76%29.65 "HgN/A
7:50 AM39 °FScattered showers. Scattered clouds.7 mph87%29.65 "HgN/A
6:50 AM37 °FSprinkles. Passing clouds.5 mph93%29.65 "HgN/A
5:50 AM39 °FScattered showers. Passing clouds.5 mph87%29.65 "HgN/A
Weather by CustomWeather, © 2016

See weather overviewHow to use our weather pages